STARLINK-34080 (64116 NORAD) Tracking and Keplerian Element Data

This shows tracking and keplerian element data for the satellite.

Feedback or suggestion? Click here.




ElementValue
Catalog64116
NameSTARLINK-34080
Epoch Orbit3360
Epoch Day353.53937032
Epoch Year2025
RAAN38.8744
Inclination53.1601
Eccentricity0.00011
Argument of Perigee83.7427
Mean Anonmoly276.3699
Mean Motion15.30196825
Decay Rate0.00021943
L11 64116U 25110W 25353.53937032 .00021943 00000+0 75086-3 0 9994
L22 64116 53.1601 38.8744 0001100 83.7427 276.3699 15.30196825 33607



Live tracking and technical data element details for STARLINK-34080 (NORAD 64116). STARLINK-34080 can be tracked NOW for your location showing map with azimuth and elevation plus other details from your city location.







IsCatalogInMostPopularTable: catalog: 64116, numindb: 4
Update: records affected: 1



GetName: 64116 STARLINK-34080

Hit Count: updated at: Tue, 17 Feb 2026 12:52:38 GMT